Home > Weather > Modena > Past weeks

Flag for Italy Past Weather in Modena, Italy — Yesterday and Last 2 Weeks

Now
79 °F

Scattered clouds.


Feels Like: 80 °F
Forecast: 70 / 94 °F
Wind: 5 mph from West

Location: Bologna / Borgo Panigale

Current Time: Jul 24, 2016 at 8:41:13 PM

Latest Report: Jul 24, 2016 at 7:50 PM


Visibility: N/A

Pressure: 29.98 "Hg

Humidity: 54%

Dew Point: 61 °F

Location of ModenaLocation

Past Weather in Modena — Graph

°F

Modena Temperature Yesterday

Maximum temperature yesterday: 84 °F (at 6:20 PM)
Minimum temperature yesterday: 73 °F (at 3:50 AM)
Average temperature yesterday: 77 °F

High & Low Weather Summary for the Past Weeks

 TemperatureHumidityPressure
High95 °F (Jul 11, 2:20 PM)88% (Jul 24, 5:20 AM)30.12 "Hg (Jul 24, 5:20 AM)
Low57 °F (Jul 17, 3:20 AM)20% (Jul 16, 4:50 PM)29.65 "Hg (Jul 13, 6:50 PM)
Average79 °F52%29.97 "Hg
* Reported Jul 9 7:20 PM — Jul 24 7:20 PM, Modena, Weather by CustomWeather, © 2016

Note: Actual official high and low records may vary slightly from our data, if they occured in-between our weather recording intervals... More about our weather records

Advertising

Modena Weather History for the Previous 24 Hours

Scroll right to see more
 ConditionsComfort  
Time TempWeatherWind HumidityBarometerVisibility
7:20 PM
Sun, Jul 24
81 °FScattered clouds.7 mph48%29.98 "HgN/A
6:50 PM82 °FScattered clouds.9 mph51%29.98 "HgN/A
6:20 PM82 °FScattered clouds.5 mph51%29.98 "HgN/A
5:50 PM82 °FScattered clouds.5 mph55%29.98 "HgN/A
5:20 PM81 °FScattered clouds.7 mph54%29.98 "HgN/A
4:50 PM81 °FScattered clouds.9 mph54%29.98 "HgN/A
4:20 PM81 °FScattered clouds.9 mph54%29.98 "HgN/A
3:50 PM81 °FScattered clouds.8 mph54%29.98 "HgN/A
3:20 PM82 °FScattered clouds.9 mph51%30.01 "HgN/A
2:50 PM82 °FScattered clouds.12 mph51%30.01 "HgN/A
2:20 PM82 °FScattered clouds.9 mph55%30.01 "HgN/A
1:50 PM82 °FScattered clouds.8 mph55%30.01 "HgN/A
1:20 PM81 °FScattered clouds.6 mph62%30.01 "HgN/A
12:50 PM81 °FScattered clouds.2 mph62%30.01 "HgN/A
12:20 PM81 °FScattered clouds.2 mph62%30.04 "HgN/A
11:50 AM79 °FScattered clouds.2 mph65%30.04 "HgN/A
11:20 AM79 °FScattered clouds.3 mph65%30.04 "HgN/A
10:50 AM77 °FScattered clouds.2 mph69%30.04 "HgN/A
10:20 AM77 °FScattered clouds.5 mph69%30.04 "HgN/A
9:50 AM75 °FScattered clouds.6 mph74%30.04 "HgN/A
9:20 AM75 °FScattered clouds.6 mph74%30.04 "HgN/A
8:50 AM75 °FPartly sunny.6 mph74%30.01 "HgN/A
8:20 AM73 °FPartly sunny.3 mph78%30.01 "HgN/A
7:50 AM73 °FPartly sunny.6 mph78%30.01 "HgN/A
7:20 AM72 °FScattered clouds.6 mph83%30.01 "HgN/A
6:50 AM72 °FPassing clouds.5 mph83%30.01 "Hg5 mi
6:20 AM72 °FPassing clouds.5 mph83%30.01 "Hg5 mi
5:50 AM70 °FPassing clouds.2 mph88%30.01 "HgN/A
5:20 AM72 °FPassing clouds.5 mph88%30.01 "HgN/A
4:50 AM72 °FLight rain. Passing clouds.10 mph83%30.01 "HgN/A
4:20 AM72 °FPassing clouds.3 mph78%30.01 "HgN/A
3:50 AM73 °FPassing clouds.9 mph74%30.04 "HgN/A
3:20 AM72 °FPassing clouds.7 mph83%30.04 "HgN/A
2:50 AM72 °FPassing clouds.5 mph83%30.01 "HgN/A
2:20 AM72 °FPassing clouds.3 mph83%30.01 "HgN/A
1:50 AM72 °FPassing clouds.7 mph83%30.04 "HgN/A
1:20 AM72 °FPassing clouds.5 mph83%30.04 "HgN/A
12:50 AM73 °FPassing clouds.5 mph78%30.01 "HgN/A
12:20 AM73 °FClear.5 mph78%30.01 "Hg10 mi
11:50 PM
Sat, Jul 23
73 °FClear.3 mph78%30.01 "Hg10 mi
11:20 PM75 °FClear.3 mph74%30.01 "Hg10 mi
10:50 PM75 °FClear.2 mph74%30.01 "Hg10 mi
10:20 PM73 °FClear.5 mph78%30.01 "Hg10 mi
9:50 PM77 °FClear.3 mph69%30.01 "Hg10 mi
9:20 PM75 °FSunny.1 mph74%30.01 "Hg10 mi
8:50 PM77 °FSunny.2 mph65%30.01 "Hg10 mi
8:20 PM79 °FSunny.2 mph61%30.01 "Hg10 mi
Weather by CustomWeather, © 2016

See weather overviewHow to use our weather pages